Jackson, MN

4:30 PM CDT on April 23, 2018 (GMT -0500)
Jackson Municipal

Weather History for KMJQ - August, 2013

Change the Weather History Date:

Saturday, August 17, 2013

  Actual Average Record
Temperature  
Mean Temperature 66 °F -  
Max Temperature 78 °F 76 °F 100 °F (2003)
Min Temperature 53 °F 56 °F 44 °F (2012)
Growing Degree Days 16 (Base 50)    
Moisture  
Dew Point 53 °F    
Average Humidity 63    
Maximum Humidity 88    
Minimum Humidity 39    
Precipitation  
Precipitation 0.00 in - - ()
Sea Level Pressure  
Sea Level Pressure 30.18 in    
Wind  
Wind Speed 7 mph (South)    
Max Wind Speed 16 mph    
Max Gust Speed 20 mph    
Visibility 10 miles    
Events      
Averages and records for this station are not official NWS values.
T = Trace of Precipitation, MM = Missing Value Source: NWS Daily Summary

Daily Weather History Graph

Daily Weather History Graph

Search for Another Location

Airport or City:

Astronomy

Aug. 17, 2013 Rise Set
Actual Time 6:27 AM CDT 8:20 PM CDT
Civil Twilight 5:56 AM CDT 8:50 PM CDT
Nautical Twilight 5:18 AM CDT 9:28 PM CDT
Astronomical Twilight 4:37 AM CDT 10:09 PM CDT
Moon 5:39 PM CDT (8/17) 2:27 AM CDT (8/17)
Length of Visible Light 14h 54m
Length of Day
13h 52m
Waxing Gibbous, 84% of the Moon is Illuminated
Aug 17
Waxing Gibbous
Aug 20
Full
Aug 28
Last Quarter
Sep 5
New
Sep 12
First Quarter

Hourly Weather History & Observations

Time (CDT) Temp. Dew Point Humidity Pressure Visibility Wind Dir Wind Speed Gust Speed Precip Events Conditions
12:14 AM 60.8 °F 51.8 °F 72% 30.20 in 10.0 mi South 4.6 mph - N/A   Clear
12:33 AM 59.0 °F 51.8 °F 77% 30.20 in 10.0 mi SSW 5.8 mph - N/A   Clear
12:53 AM 59.0 °F 53.6 °F 82% 30.20 in 10.0 mi South 5.8 mph - N/A   Clear
1:14 AM 59.0 °F 51.8 °F 77% 30.20 in 10.0 mi South 5.8 mph - N/A   Clear
1:33 AM 59.0 °F 51.8 °F 77% 30.20 in 10.0 mi South 5.8 mph - N/A   Clear
1:53 AM 57.2 °F 51.8 °F 82% 30.20 in 10.0 mi South 4.6 mph - N/A   Clear
2:14 AM 57.2 °F 51.8 °F 82% 30.20 in 10.0 mi South 4.6 mph - N/A   Clear
2:33 AM 55.4 °F 51.8 °F 88% 30.20 in 10.0 mi South 4.6 mph - N/A   Clear
2:53 AM 55.4 °F 51.8 °F 88% 30.20 in 10.0 mi South 6.9 mph - N/A   Clear
3:14 AM 57.2 °F 51.8 °F 82% 30.20 in 10.0 mi South 5.8 mph - N/A   Clear
3:33 AM 57.2 °F 50.0 °F 77% 30.20 in 10.0 mi South 6.9 mph - N/A   Clear
3:53 AM 57.2 °F 50.0 °F 77% 30.20 in 10.0 mi South 6.9 mph - N/A   Clear
4:14 AM 55.4 °F 50.0 °F 82% 30.21 in 10.0 mi South 6.9 mph - N/A   Clear
4:34 AM 55.4 °F 50.0 °F 82% 30.21 in 10.0 mi South 6.9 mph - N/A   Clear
4:53 AM 55.4 °F 50.0 °F 82% 30.21 in 10.0 mi South 5.8 mph - N/A   Clear
5:14 AM 55.4 °F 50.0 °F 82% 30.20 in 10.0 mi South 5.8 mph - N/A   Clear
5:34 AM 53.6 °F 50.0 °F 88% 30.21 in 10.0 mi South 5.8 mph - N/A   Clear
5:53 AM 53.6 °F 50.0 °F 88% 30.21 in 10.0 mi South 5.8 mph - N/A   Clear
6:14 AM 55.4 °F 50.0 °F 82% 30.21 in 10.0 mi South 5.8 mph - N/A   Clear
6:33 AM 55.4 °F 50.0 °F 82% 30.21 in 10.0 mi South 5.8 mph - N/A   Clear
6:54 AM 55.4 °F 50.0 °F 82% 30.22 in 10.0 mi South 6.9 mph - N/A   Clear
7:14 AM 57.2 °F 50.0 °F 77% 30.22 in 10.0 mi South 6.9 mph - N/A   Clear
7:33 AM 59.0 °F 51.8 °F 77% 30.22 in 10.0 mi South 6.9 mph - N/A   Clear
7:54 AM 60.8 °F 51.8 °F 72% 30.22 in 10.0 mi South 6.9 mph - N/A   Clear
8:14 AM 60.8 °F 51.8 °F 72% 30.22 in 10.0 mi South 6.9 mph - N/A   Clear
8:33 AM 62.6 °F 53.6 °F 72% 30.22 in 10.0 mi South 5.8 mph - N/A   Clear
8:54 AM 64.4 °F 53.6 °F 68% 30.21 in 10.0 mi South 8.1 mph - N/A   Clear
9:14 AM 66.2 °F 53.6 °F 64% 30.21 in 10.0 mi South 6.9 mph - N/A   Clear
9:33 AM 68.0 °F 53.6 °F 60% 30.22 in 10.0 mi South 8.1 mph - N/A   Clear
9:54 AM 69.8 °F 55.4 °F 60% 30.22 in 10.0 mi South 11.5 mph - N/A   Clear
10:13 AM 71.6 °F 53.6 °F 53% 30.21 in 10.0 mi South 8.1 mph - N/A   Clear
10:33 AM 71.6 °F 53.6 °F 53% 30.21 in 10.0 mi South 10.4 mph - N/A   Clear
10:51 AM 73.4 °F 53.6 °F 50% 30.21 in - South 12.7 mph - N/A   Unknown
11:14 AM 73.4 °F 53.6 °F 50% 30.21 in 10.0 mi South 12.7 mph 18.4 mph N/A   Clear
11:33 AM 73.4 °F 53.6 °F 50% 30.21 in 10.0 mi SSW 13.8 mph 17.3 mph N/A   Clear
11:54 AM 75.2 °F 51.8 °F 44% 30.21 in 10.0 mi SSW 13.8 mph 19.6 mph N/A   Clear
12:14 PM 75.2 °F 53.6 °F 47% 30.20 in 10.0 mi SSW 12.7 mph - N/A   Clear
12:33 PM 75.2 °F 53.6 °F 47% 30.20 in 10.0 mi SSW 12.7 mph 17.3 mph N/A   Clear
12:54 PM 77.0 °F 53.6 °F 44% 30.19 in 10.0 mi SSW 11.5 mph - N/A   Scattered Clouds
1:13 PM 77.0 °F 53.6 °F 44% 30.19 in 10.0 mi SSW 16.1 mph - N/A   Scattered Clouds
1:33 PM 77.0 °F 53.6 °F 44% 30.19 in 10.0 mi South 13.8 mph 17.3 mph N/A   Scattered Clouds
1:53 PM 77.0 °F 53.6 °F 44% 30.18 in 10.0 mi South 13.8 mph 18.4 mph N/A   Scattered Clouds
2:13 PM 78.8 °F 55.4 °F 44% 30.18 in 10.0 mi South 12.7 mph 17.3 mph N/A   Scattered Clouds
2:34 PM 77.0 °F 53.6 °F 44% 30.18 in 10.0 mi South 9.2 mph 12.7 mph N/A   Scattered Clouds
2:53 PM 77.0 °F 53.6 °F 44% 30.17 in 10.0 mi South 9.2 mph 18.4 mph N/A   Scattered Clouds
3:13 PM 78.8 °F 53.6 °F 42% 30.17 in 10.0 mi South 11.5 mph - N/A   Scattered Clouds
3:34 PM 77.0 °F 53.6 °F 44% 30.16 in 10.0 mi South 10.4 mph 18.4 mph N/A   Mostly Cloudy
3:53 PM 78.8 °F 53.6 °F 42% 30.16 in 10.0 mi South 10.4 mph - N/A   Scattered Clouds
4:13 PM 78.8 °F 53.6 °F 42% 30.15 in 10.0 mi South 12.7 mph - N/A   Scattered Clouds
4:34 PM 78.8 °F 53.6 °F 42% 30.15 in 10.0 mi SSE 12.7 mph - N/A   Mostly Cloudy
4:53 PM 78.8 °F 53.6 °F 42% 30.15 in 10.0 mi South 10.4 mph - N/A   Mostly Cloudy
5:13 PM 78.8 °F 51.8 °F 39% 30.15 in 10.0 mi SSE 11.5 mph 17.3 mph N/A   Scattered Clouds
5:33 PM 77.0 °F 51.8 °F 41% 30.15 in 10.0 mi South 10.4 mph - N/A   Scattered Clouds
5:53 PM 75.2 °F 51.8 °F 44% 30.15 in 10.0 mi South 9.2 mph - N/A   Scattered Clouds
6:14 PM 77.0 °F 51.8 °F 41% 30.15 in 10.0 mi South 11.5 mph - N/A   Clear
6:33 PM 77.0 °F 53.6 °F 44% 30.14 in 10.0 mi South 6.9 mph - N/A   Clear
6:53 PM 77.0 °F 51.8 °F 41% 30.14 in 10.0 mi South 8.1 mph - N/A   Clear
7:14 PM 75.2 °F 53.6 °F 47% 30.14 in 10.0 mi South 6.9 mph - N/A   Clear
7:33 PM 73.4 °F 53.6 °F 50% 30.14 in 10.0 mi South 6.9 mph - N/A   Clear
7:53 PM 71.6 °F 53.6 °F 53% 30.13 in 10.0 mi SSE 5.8 mph - N/A   Clear
8:14 PM 69.8 °F 53.6 °F 56% 30.14 in 10.0 mi South 5.8 mph - N/A   Clear
8:33 PM 68.0 °F 53.6 °F 60% 30.14 in 10.0 mi South 5.8 mph - N/A   Clear
8:54 PM 68.0 °F 53.6 °F 60% 30.14 in 10.0 mi SSE 6.9 mph - N/A   Clear
9:14 PM 66.2 °F 53.6 °F 64% 30.15 in 10.0 mi South 4.6 mph - N/A   Clear
9:33 PM 64.4 °F 53.6 °F 68% 30.15 in 10.0 mi South 3.5 mph - N/A   Clear
9:54 PM 64.4 °F 53.6 °F 68% 30.15 in 10.0 mi South 5.8 mph - N/A   Clear
10:13 PM 62.6 °F 53.6 °F 72% 30.15 in 10.0 mi South 4.6 mph - N/A   Clear
10:34 PM 62.6 °F 53.6 °F 72% 30.15 in 10.0 mi SSE 4.6 mph - N/A   Clear
10:54 PM 60.8 °F 53.6 °F 77% 30.15 in 10.0 mi South 4.6 mph - N/A   Clear
11:13 PM 60.8 °F 53.6 °F 77% 30.15 in 10.0 mi South 5.8 mph - N/A   Clear
11:34 PM 60.8 °F 53.6 °F 77% 30.15 in 10.0 mi South 6.9 mph - N/A   Clear
11:54 PM 60.8 °F 53.6 °F 77% 30.15 in 10.0 mi South 5.8 mph - N/A   Clear